Location: Gorze? G�rny
(49.8500°N, 19.5000°E)
Time: 02:10:10
(UTC+00:00)

Cosmos 2074 Rocket - Pass Details

Date: 13 May 2021
Orbit: 967 x 986 km, 82.9° (Epoch: 23 June)

Event Time Altitude Azimuth Distance (km) Brightness Sun altitude
Rises 20:15:16 0° 348° (NNW) 3,707 8.3 -14.6°
Reaches altitude 10° 20:17:49 10° 346° (NNW) 2,756 7.5 -14.8°
Maximum altitude 20:24:04 67° 266° (W) 1,064 4.3 -15.4°
Enters shadow 20:29:20 15° 186° (S) 2,388 5.6 -15.8°
